User: anonymous   Login
Location: Oshawa
(43.9000°N, 78.8670°W)
Time: 17:14:07
(UTC-05:00)
Language:

Cosmos 2333 Rocket - Orbit

View from above orbital plane
View from above orbital plane
View from above satellite
View from above satellite

Ground track
Ground track

The orbit data is extracted from the following two-line orbital elements,

1 24298U 96051B   15028.20973319 -.00000186  00000-0 -74223-4 0  6554
2 24298 070.8539 098.0422 0014576 029.0494 032.7719 14.12445067948841
Epoch (UTC): 28 January 2015 05:02:00
Eccentricity: 0.0014576
inclination: 70.8539°
perigee height: 840 km
apogee height: 861 km
right ascension of ascending node: 98.0422°
argument of perigee: 29.0494°
revolutions per day: 14.12445067
mean anomaly at epoch: 32.7719°
orbit number at epoch: 94884

The dashed part of the orbit path shows where the satellite is in the earth's shadow,  

DLR